Location: Harmony
(28.2000°N, 81.1500°W)
Time: 02:12:51
(UTC-04:00)

ASC 2 Rocket - Visible Passes

Search period start: 25 March 2019 00:00
Search period end: 04 April 2019 00:00
Orbit: 555 x 2345 km, 24.0° (Epoch: 23 March)

Date Brightness Start Highest point End Pass type
(mag) Time Alt. Az. Time Alt. Az. Time Alt. Az.
25 Mar 4.1 20:17:40 10° W 20:21:52 33° SSW 20:25:18 11° SE visible
26 Mar 4.8 21:14:41 10° WSW 21:17:35 18° SSW 21:18:11 17° S visible
27 Mar 4.6 20:07:33 10° WSW 20:11:51 28° SSW 20:15:26 10° SE visible
28 Mar 5.3 21:05:21 10° SW 21:07:27 13° SSW 21:09:10 11° S visible
29 Mar 5.1 19:57:24 10° WSW 20:01:44 23° SSW 20:05:15 10° SSE visible
